| time (UTC) | temp F | wind direction | speed MPH | gust MPH | rain 1hr in | rain 24hr in | rain mn in | humidity % | barometer mb |
| 20260508191539 | 49 | 83 | 9.0 | 19.0 | 0.00 | 0.61 | 0.01 | 76 | 1000.7 |
| 20260508190042 | 48 | 53 | 8.0 | 19.0 | 0.00 | 0.84 | 0.01 | 79 | 1000.6 |
| 20260508184535 | 48 | 55 | 8.0 | 18.0 | 0.00 | 0.84 | 0.01 | 81 | 1000.7 |
| 20260508183033 | 47 | 45 | 10.0 | 17.0 | 0.00 | 0.84 | 0.01 | 80 | 1000.9 |
| 20260508181532 | 49 | 62 | 7.0 | 12.0 | 0.00 | 0.84 | 0.01 | 80 | 1000.9 |
| 20260508180032 | 49 | 85 | 9.0 | 17.0 | 0.00 | 0.84 | 0.01 | 79 | 1000.8 |
| 20260508174553 | 50 | 67 | 11.0 | 15.0 | 0.00 | 0.84 | 0.01 | 78 | 1000.7 |
| 20260508173032 | 50 | 57 | 7.0 | 14.0 | 0.00 | 0.84 | 0.01 | 78 | 1001.0 |
| 20260508171528 | 51 | 58 | 8.0 | 16.0 | 0.01 | 0.84 | 0.01 | 79 | 1001.3 |
| 20260508170032 | 49 | 73 | 10.0 | 17.0 | 0.01 | 0.84 | 0.01 | 80 | 1001.3 |
| 20260508164526 | 50 | 76 | 7.0 | 14.0 | 0.01 | 0.84 | 0.01 | 80 | 1001.2 |
| 20260508163039 | 48 | 29 | 7.0 | 13.0 | 0.01 | 0.84 | 0.01 | 83 | 1001.2 |
| 20260508161525 | 48 | 49 | 9.0 | 17.0 | 0.00 | 0.83 | 0.00 | 82 | 1001.3 |
| 20260508160026 | 49 | 41 | 9.0 | 14.0 | 0.00 | 0.83 | 0.00 | 81 | 1001.4 |
| 20260508154524 | 50 | 73 | 8.0 | 14.0 | 0.00 | 0.83 | 0.00 | 83 | 1001.2 |
| 20260508153027 | 50 | 54 | 4.0 | 18.0 | 0.00 | 0.83 | 0.00 | 85 | 1001.3 |
| 20260508151528 | 51 | 74 | 6.0 | 16.0 | 0.00 | 0.83 | 0.00 | 86 | 1001.4 |
| 20260508150017 | 51 | 50 | 4.0 | 13.0 | 0.00 | 0.83 | 0.00 | 89 | 1001.7 |
| 20260508144515 | 50 | 61 | 7.0 | 13.0 | 0.00 | 0.83 | 0.00 | 93 | 1001.6 |
| 20260508143014 | 50 | 104 | 5.0 | 12.0 | 0.00 | 0.83 | 0.00 | 94 | 1001.9 |
| 20260508141514 | 49 | 58 | 7.0 | 13.0 | 0.00 | 0.83 | 0.00 | 95 | 1001.9 |
| 20260508140012 | 49 | 72 | 5.0 | 10.0 | 0.00 | 0.83 | 0.00 | 96 | 1002.2 |
| 20260508134509 | 49 | 107 | 4.0 | 8.0 | 0.00 | 0.83 | 0.00 | 98 | 1002.6 |
| 20260508133008 | 47 | 64 | 5.0 | 9.0 | 0.00 | 0.83 | 0.00 | 99 | 1002.4 |
| 20260508131507 | 46 | 58 | 4.0 | 10.0 | 0.00 | 0.83 | 0.00 | 100 | 1002.1 |
| 20260508130006 | 43 | 127 | 4.0 | 7.0 | 0.00 | 0.85 | 0.00 | 99 | 1002.2 |
| 20260508124506 | 44 | 135 | 2.0 | 5.0 | 0.00 | 0.85 | 0.00 | 100 | 1002.0 |
| 20260508123006 | 43 | 160 | 4.0 | 6.0 | 0.00 | 0.85 | 0.00 | 100 | 1002.0 |
| 20260508121506 | 43 | 152 | 2.0 | 4.0 | 0.00 | 0.85 | 0.00 | 100 | 1002.2 |
| 20260508120004 | 42 | 180 | 2.0 | 5.0 | 0.00 | 0.98 | 0.00 | 100 | 1002.3 |
| 20260508114503 | 43 | 93 | 2.0 | 3.0 | 0.00 | 0.98 | 0.00 | 100 | 1002.2 |
| 20260508113003 | 42 | 93 | 1.0 | 3.0 | 0.00 | 0.98 | 0.00 | 100 | 1002.0 |
| 20260508111502 | 41 | 161 | 0.0 | 0.0 | 0.00 | 0.98 | 0.00 | 100 | 1002.4 |
| 20260508110001 | 39 | 161 | 0.0 | 0.0 | 0.00 | 0.99 | 0.00 | 100 | 1002.5 |
| 20260508104605 | 39 | 161 | 0.0 | 0.0 | 0.00 | 0.99 | 0.00 | 100 | 1002.6 |
| 20260508103101 | 39 | 161 | 0.0 | 0.0 | 0.00 | 0.99 | 0.00 | 100 | 1002.5 |
| 20260508101602 | 39 | 162 | 0.0 | 3.0 | 0.00 | 0.99 | 0.00 | 100 | 1002.5 |
| 20260508100058 | 38 | 170 | 0.0 | 1.0 | 0.00 | 0.99 | 0.00 | 100 | 1002.3 |
| 20260508094558 | 37 | 170 | 0.0 | 1.0 | 0.00 | 0.99 | 0.00 | 100 | 1002.3 |
| 20260508093102 | 37 | 262 | 1.0 | 3.0 | 0.00 | 0.99 | 0.00 | 100 | 1002.0 |
| 20260508091556 | 37 | 262 | 0.0 | 0.0 | 0.00 | 0.99 | 0.00 | 100 | 1002.0 |
| 20260508090108 | 38 | 262 | 0.0 | 2.0 | 0.00 | 0.99 | 0.00 | 100 | 1002.0 |
| 20260508084551 | 38 | 262 | 1.0 | 2.0 | 0.00 | 0.99 | 0.00 | 100 | 1001.7 |
| 20260508083050 | 38 | 262 | 0.0 | 3.0 | 0.00 | 0.99 | 0.00 | 100 | 1001.4 |
| 20260508081558 | 38 | 310 | 2.0 | 5.0 | 0.00 | 0.99 | 0.00 | 100 | 1001.6 |
| 20260508080046 | 38 | 60 | 0.0 | 2.0 | 0.00 | 0.99 | 0.00 | 100 | 1001.4 |
| 20260508074645 | 38 | 60 | 0.0 | 2.0 | 0.00 | 0.99 | 0.00 | 100 | 1001.5 |
| 20260508073043 | 38 | 60 | 0.0 | 2.0 | 0.00 | 0.99 | 0.00 | 100 | 1001.5 |
| 20260508071544 | 38 | 60 | 0.0 | 2.0 | 0.00 | 0.99 | 0.00 | 99 | 1001.5 |
| 20260508070039 | 39 | 60 | 0.0 | 4.0 | 0.00 | 0.99 | 0.00 | 99 | 1001.5 |
| 20260508064537 | 40 | 58 | 1.0 | 3.0 | 0.00 | 0.99 | 0.00 | 100 | 1001.3 |
| 20260508063036 | 40 | 58 | 0.0 | 2.0 | 0.00 | 0.99 | 0.00 | 99 | 1001.6 |
| 20260508061534 | 40 | 58 | 1.0 | 7.0 | 0.00 | 0.99 | 0.00 | 99 | 1001.7 |
| 20260508060030 | 41 | 52 | 1.0 | 5.0 | 0.00 | 0.99 | 0.00 | 99 | 1001.6 |
| 20260508054528 | 42 | 51 | 2.0 | 5.0 | 0.00 | 0.99 | 0.00 | 99 | 1001.4 |
| 20260508053026 | 43 | 67 | 1.0 | 10.0 | 0.00 | 0.99 | 0.00 | 99 | 1001.5 |
| 20260508051523 | 44 | 54 | 5.0 | 8.0 | 0.00 | 0.99 | 0.00 | 99 | 1001.3 |
| 20260508050026 | 45 | 41 | 3.0 | 7.0 | 0.00 | 0.99 | 0.00 | 99 | 1001.4 |
| 20260508044521 | 45 | 40 | 4.0 | 9.0 | 0.00 | 0.99 | 0.00 | 100 | 1001.5 |
| 20260508043020 | 45 | 39 | 2.0 | 7.0 | 0.00 | 0.99 | 0.00 | 99 | 1001.5 |
| 20260508041519 | 44 | 67 | 3.0 | 7.0 | 0.00 | 0.99 | 0.00 | 99 | 1001.4 |
| 20260508040019 | 44 | 81 | 5.0 | 10.0 | 0.00 | 0.99 | 0.00 | 99 | 1001.4 |
| 20260508034518 | 45 | 53 | 0.0 | 7.0 | 0.00 | 0.99 | 0.00 | 99 | 1001.6 |
| 20260508033018 | 46 | 45 | 3.0 | 6.0 | 0.00 | 0.99 | 0.00 | 99 | 1001.5 |
| 20260508031508 | 47 | 79 | 7.0 | 9.0 | 0.00 | 0.99 | 0.00 | 99 | 1001.6 |
| 20260508030006 | 48 | 34 | 3.0 | 10.0 | 0.00 | 0.99 | 0.99 | 99 | 1001.5 |
| 20260508024505 | 49 | 5 | 2.0 | 5.0 | 0.00 | 0.99 | 0.99 | 100 | 1001.7 |
| 20260508023008 | 49 | 51 | 3.0 | 8.0 | 0.00 | 0.99 | 0.99 | 100 | 1001.3 |
| 20260508021503 | 48 | 49 | 0.0 | 7.0 | 0.00 | 0.99 | 0.99 | 100 | 1001.4 |
| 20260508020103 | 49 | 24 | 1.0 | 6.0 | 0.00 | 0.99 | 0.99 | 100 | 1001.3 |
| 20260508014505 | 49 | 152 | 3.0 | 7.0 | 0.00 | 0.99 | 0.99 | 100 | 1001.3 |
| 20260508013001 | 49 | 359 | 4.0 | 9.0 | 0.00 | 0.99 | 0.99 | 100 | 1001.0 |
| 20260508011502 | 51 | 129 | 5.0 | 11.0 | 0.00 | 0.99 | 0.99 | 100 | 1000.6 |
| 20260508010059 | 49 | 301 | 3.0 | 9.0 | 0.00 | 0.99 | 0.99 | 100 | 1000.7 |
| 20260508004600 | 48 | 250 | 1.0 | 3.0 | 0.00 | 0.99 | 0.99 | 100 | 1001.1 |
| 20260508003105 | 47 | 249 | 0.0 | 2.0 | 0.00 | 0.99 | 0.99 | 100 | 1001.3 |
| 20260508001556 | 46 | 249 | 0.0 | 2.0 | 0.00 | 0.99 | 0.99 | 100 | 1001.5 |
| 20260508000054 | 46 | 208 | 2.0 | 6.0 | 0.00 | 0.99 | 0.99 | 99 | 1001.5 |
| 20260507234554 | 48 | 212 | 2.0 | 5.0 | 0.00 | 0.99 | 0.99 | 99 | 1001.4 |
| 20260507233054 | 49 | 192 | 2.0 | 10.0 | 0.00 | 0.99 | 0.99 | 100 | 1001.5 |
| 20260507231558 | 49 | 189 | 1.0 | 4.0 | 0.00 | 0.99 | 0.99 | 99 | 1001.5 |
| 20260507230053 | 49 | 191 | 4.0 | 9.0 | 0.00 | 0.99 | 0.99 | 100 | 1001.4 |
| 20260507224600 | 47 | 175 | 5.0 | 9.0 | 0.00 | 0.99 | 0.99 | 99 | 1001.7 |
| 20260507223051 | 48 | 185 | 6.0 | 12.0 | 0.00 | 0.99 | 0.99 | 99 | 1001.5 |
| 20260507221550 | 49 | 200 | 4.0 | 10.0 | 0.00 | 0.99 | 0.99 | 99 | 1001.7 |
| 20260507220049 | 50 | 208 | 6.0 | 11.0 | 0.00 | 0.99 | 0.99 | 99 | 1002.0 |
| 20260507214549 | 50 | 210 | 4.0 | 10.0 | 0.02 | 0.99 | 0.99 | 99 | 1002.0 |
| 20260507213051 | 50 | 231 | 2.0 | 8.0 | 0.08 | 0.99 | 0.99 | 100 | 1001.7 |
| 20260507211551 | 46 | 228 | 1.0 | 4.0 | 0.15 | 0.99 | 0.99 | 99 | 1002.0 |
| 20260507210111 | 46 | 226 | 0.0 | 8.0 | 0.23 | 0.99 | 0.99 | 98 | 1001.7 |
| 20260507204550 | 46 | 175 | 2.0 | 6.0 | 0.30 | 0.98 | 0.98 | 98 | 1002.2 |
| 20260507203044 | 50 | 202 | 2.0 | 8.0 | 0.33 | 0.91 | 0.91 | 99 | 1002.2 |
| 20260507201542 | 48 | 198 | 4.0 | 8.0 | 0.35 | 0.84 | 0.84 | 98 | 1002.9 |
| 20260507200052 | 48 | 222 | 6.0 | 13.0 | 0.37 | 0.76 | 0.76 | 97 | 1003.4 |
| 20260507194538 | 50 | 233 | 5.0 | 11.0 | 0.36 | 0.67 | 0.67 | 97 | 1003.7 |
| 20260507193102 | 52 | 175 | 5.0 | 12.0 | 0.35 | 0.57 | 0.57 | 97 | 1004.1 |